Temp
41 41 40 40 39 39 38 37 36 31 32 36 36 40 41 42 46 46 45 52 58 59 59 59 59 60 61 62 63 63 63 63 63 63 64 66 64 65
42 41 39 38 38 38 37 36 35 34 30 36 37 38 41 47 47 48 46 55 56 57 58 58 58 59 59 60 61 61 61 62 62 62 63 64 63 64
40 40 40 39 38 37 36 35 35 33 31 35 36 38 37 39 42 42 43 42 42 54 57 57 58 58 58 59 59 60 60 60 61 62 62 63 63 63
41 39 40 45 37 37 36 35 35 35 33 34 34 35 36 37 38 38 44 48 43 51 55 56 56 57 57 57 58 58 58 59 59 60 60 62 62 63
40 39 39 38 37 36 36 35 35 40 35 32 33 34 35 35 36 37 38 38 44 50 52 53 54 55 56 57 56 56 57 57 57 58 58 59 60 61
40 40 40 39 37 37 37 36 37 34 34 32 32 34 34 38 35 37 37 36 39 45 48 50 51 53 54 55 55 55 55 56 56 56 56 57 58 59
40 40 40 42 48 49 47 38 36 36 34 33 37 40 39 40 39 38 38 42 41 38 39 38 39 39 41 47 50 52 53 54 54 55 55 55 55 56
38 39 40 47 45 51 51 51 50 43 40 40 39 38 39 40 41 39 40 39 37 38 36 36 38 37 39 39 47 50 52 53 53 54 55 55 55 56
37 37 38 43 45 40 45 49 48 49 49 43 39 40 40 41 42 38 36 40 40 44 42 40 38 39 40 45 50 51 52 53 53 53 54 54 54 55
37 37 36 36 37 40 38 37 38 39 40 42 42 44 44 43 39 40 39 41 42 43 44 38 43 41 41 40 48 50 51 52 52 52 53 54 54 54
37 37 37 36 43 47 43 42 42 42 48 50 51 51 51 51 48 42 39 39 36 38 43 39 40 41 41 40 40 48 49 50 51 52 52 53 53 54
36 37 44 43 47 48 44 41 39 39 41 41 42 44 46 44 48 42 38 35 35 36 40 38 40 40 36 39 39 38 38 45 48 49 50 51 52 47
41 38 37 45 47 48 48 43 42 43 41 41 41 40 39 39 38 38 38 37 36 37 41 40 38 38 37 38 37 38 37 38 38 41 47 49 50 50
39 37 39 45 46 47 46 45 47 47 39 37 37 37 37 36 35 35 35 35 36 37 38 41 37 37 36 36 35 39 41 37 37 37 38 44 48 50
41 42 46 46 46 41 42 45 46 37 35 34 33 34 35 35 33 32 34 34 34 35 40 37 37 37 36 34 31 34 38 38 41 37 37 38 39 40
41 38 41 44 42 41 39 38 36 36 35 34 34 35 36 34 32 32 31 32 31 35 39 40 40 39 36 36 37 35 37 37 40 41 41 41 41 40
42 38 36 34 32 31 31 33 35 36 34 35 34 34 33 33 32 33 32 33 33 34 36 39 41 41 40 38 35 37 37 38 41 38 40 41 39 40
38 33 31 29 28 29 32 33 35 35 35 34 34 33 33 32 32 32 32 33 33 35 35 37 37 36 37 38 42 36 35 35 37 37 38 37 37 40
29 29 27 29 32 33 32 32 31 34 35 34 33 33 34 33 33 33 32 34 34 34 35 36 36 34 31 30 39 45 37 38 39 38 38 38 41 39
29 28 30 32 31 32 33 32 33 33 33 34 33 33 33 32 32 32 33 31 33 34 34 36 35 35 33 32 34 38 42 40 39 38 39 40 41 46
30 31 32 32 32 32 32 33 32 32 32 32 33 33 33 32 32 31 32 35 35 33 32 33 36 42 38 38 34 35 38 41 41 38 39 39 38 40
31 31 32 33 32 33 33 33 33 33 33 32 33 33 33 32 31 32 33 33 33 34 34 36 38 38 36 35 34 35 37 40 42 42 42 42 40 36
31 32 32 32 33 33 33 33 33 33 33 33 33 33 33 32 33 33 33 34 34 34 34 34 36 37 36 35 35 35 36 37 38 37 39 43 43 43
MSLP
1023.51 1023.74 1024.04 1024.26 1024.44 1024.74 1025.06 1025.39 1025.79 1026.28 1025.78 1024.89 1024.76 1023.76 1023.46 1023.27 1023.04 1022.83 1022.79 1022.60 1022.21 1021.94 1021.70 1021.59 1021.35 1021.14 1020.93 1020.74 1020.63 1020.61 1020.61 1020.64 1020.67 1020.58 1020.25 1019.81 1020.06 1020.02
1023.45 1023.74 1023.93 1024.16 1024.43 1024.72 1024.96 1025.15 1025.41 1025.66 1025.47 1024.61 1024.27 1023.80 1023.23 1022.86 1022.61 1022.35 1022.24 1021.96 1021.75 1021.51 1021.26 1021.11 1020.97 1020.78 1020.72 1020.58 1020.37 1020.27 1020.25 1020.21 1020.19 1020.09 1020.06 1019.82 1019.87 1019.86
1023.47 1023.62 1023.81 1024.06 1024.27 1024.43 1024.65 1024.84 1025.03 1025.31 1025.18 1024.30 1023.84 1023.34 1023.23 1022.86 1022.47 1022.17 1021.89 1021.70 1021.50 1021.04 1020.70 1020.56 1020.43 1020.29 1020.11 1019.92 1019.82 1019.80 1019.77 1019.74 1019.68 1019.60 1019.50 1019.40 1019.66 1019.53
1023.32 1023.55 1023.69 1023.82 1023.99 1024.11 1024.22 1024.34 1024.41 1024.35 1024.58 1024.09 1023.54 1023.23 1022.83 1022.17 1022.02 1021.97 1021.40 1021.09 1020.96 1020.56 1020.18 1019.94 1019.80 1019.66 1019.51 1019.29 1019.21 1019.21 1019.30 1019.36 1019.39 1019.28 1019.19 1019.11 1019.19 1019.12
1022.98 1023.23 1023.27 1023.38 1023.53 1023.53 1023.58 1023.68 1023.59 1023.51 1023.55 1023.58 1023.21 1022.70 1022.25 1021.93 1021.73 1021.41 1021.17 1020.78 1020.41 1020.01 1019.70 1019.47 1019.31 1019.09 1018.77 1018.60 1018.66 1018.76 1018.74 1018.81 1018.84 1018.83 1018.93 1018.93 1018.84 1018.89
1022.69 1022.76 1022.74 1022.79 1022.80 1022.80 1022.91 1022.86 1022.77 1022.89 1022.79 1022.67 1022.42 1022.19 1022.01 1021.41 1021.31 1021.07 1020.58 1020.28 1019.92 1019.62 1019.28 1019.04 1018.75 1018.48 1018.31 1018.18 1018.01 1018.04 1018.14 1018.22 1018.37 1018.42 1018.43 1018.50 1018.52 1018.61
1022.39 1022.40 1022.37 1022.25 1021.94 1021.51 1021.62 1021.85 1021.94 1021.86 1021.83 1021.86 1021.54 1021.24 1021.01 1020.76 1020.66 1020.37 1020.15 1019.69 1019.39 1019.37 1019.07 1018.75 1018.59 1018.45 1018.36 1018.20 1017.93 1017.72 1017.71 1017.72 1017.86 1017.90 1017.92 1017.97 1018.08 1018.17
1022.07 1021.88 1021.67 1021.39 1021.27 1020.92 1020.91 1020.98 1020.86 1020.60 1020.68 1020.64 1020.45 1020.19 1020.03 1019.98 1019.93 1019.81 1019.51 1019.32 1018.95 1018.57 1018.61 1018.31 1018.21 1018.07 1017.87 1017.75 1017.52 1017.25 1017.18 1017.20 1017.24 1017.27 1017.32 1017.40 1017.49 1017.50
1021.67 1021.54 1021.43 1021.27 1021.00 1020.75 1020.61 1020.39 1020.22 1020.00 1019.69 1019.42 1019.36 1019.19 1019.03 1018.94 1019.02 1018.96 1018.84 1018.59 1018.25 1018.03 1018.16 1017.67 1017.77 1017.37 1017.12 1016.98 1016.83 1016.65 1016.59 1016.60 1016.63 1016.65 1016.70 1016.76 1016.79 1016.77
1021.38 1021.22 1021.12 1020.80 1020.61 1020.46 1020.14 1019.83 1019.51 1019.27 1019.16 1018.93 1018.64 1018.29 1018.05 1018.02 1018.19 1017.92 1017.70 1017.55 1017.54 1017.42 1017.46 1017.17 1016.88 1016.59 1016.47 1016.31 1016.25 1016.14 1016.07 1016.06 1016.06 1016.07 1016.11 1016.12 1016.14 1016.11
1020.93 1020.76 1020.61 1020.32 1020.04 1019.70 1019.21 1018.88 1018.51 1018.28 1017.93 1017.48 1016.99 1016.83 1016.69 1016.49 1016.39 1016.66 1016.89 1016.98 1016.86 1016.69 1016.55 1016.66 1016.24 1015.92 1015.83 1015.63 1015.60 1015.54 1015.52 1015.54 1015.49 1015.42 1015.38 1015.39 1015.39 1015.41
1020.41 1020.11 1019.92 1019.62 1019.14 1018.65 1018.25 1018.10 1017.87 1017.52 1017.35 1017.17 1016.92 1016.74 1016.56 1016.56 1016.22 1016.41 1016.65 1016.82 1016.75 1016.33 1016.00 1016.11 1015.75 1015.77 1015.49 1015.03 1015.03 1015.13 1015.23 1015.15 1015.10 1014.97 1014.83 1014.69 1014.67 1014.85
1019.65 1019.46 1019.26 1018.91 1018.45 1017.99 1017.53 1017.26 1017.09 1016.83 1016.73 1016.55 1016.40 1016.31 1016.44 1016.40 1016.31 1016.11 1016.21 1016.41 1016.33 1015.90 1015.83 1015.95 1015.39 1015.39 1015.39 1015.10 1015.03 1014.80 1014.77 1014.74 1014.86 1014.73 1014.44 1014.21 1014.11 1014.09
1019.14 1018.91 1018.59 1018.15 1017.68 1017.14 1016.77 1016.59 1016.40 1016.10 1016.42 1016.42 1016.32 1016.19 1016.12 1016.15 1016.07 1015.98 1015.88 1015.85 1015.74 1015.62 1015.55 1015.53 1015.33 1015.04 1014.85 1014.81 1014.80 1014.44 1014.37 1014.43 1014.42 1014.20 1014.01 1013.76 1013.52 1013.35
1018.61 1018.22 1017.65 1017.29 1017.00 1017.06 1016.84 1016.51 1016.10 1016.36 1016.33 1016.18 1015.95 1015.83 1015.82 1015.73 1015.69 1015.73 1015.49 1015.34 1015.20 1014.99 1014.84 1014.92 1014.97 1014.85 1014.95 1014.77 1014.67 1014.41 1014.27 1013.91 1013.51 1013.52 1013.47 1013.44 1013.22 1013.01
1018.22 1017.77 1017.41 1016.94 1016.91 1016.76 1016.53 1016.34 1016.27 1016.15 1016.01 1015.65 1015.46 1015.31 1015.36 1015.39 1015.32 1015.22 1015.22 1014.94 1014.82 1014.39 1013.98 1013.99 1014.03 1014.08 1014.05 1014.04 1013.94 1013.77 1013.66 1013.42 1012.90 1013.06 1013.14 1012.84 1012.53 1012.46
1017.43 1017.32 1017.18 1017.15 1016.84 1016.68 1016.39 1016.08 1015.86 1015.70 1015.50 1015.30 1015.11 1014.94 1014.86 1014.84 1014.75 1014.60 1014.59 1014.42 1014.17 1013.72 1013.48 1013.38 1013.27 1013.25 1013.27 1013.25 1013.17 1012.97 1012.78 1012.60 1012.47 1012.57 1012.69 1012.38 1012.00 1011.90
1017.14 1017.24 1017.18 1016.99 1016.68 1016.34 1016.02 1015.64 1015.34 1015.12 1014.95 1014.75 1014.59 1014.45 1014.34 1014.24 1014.19 1014.07 1014.01 1013.84 1013.46 1013.15 1012.99 1012.95 1012.94 1012.91 1012.76 1012.42 1012.25 1012.08 1012.11 1012.01 1011.92 1011.98 1011.97 1011.88 1011.54 1011.20
1017.43 1017.19 1016.97 1016.66 1016.16 1015.75 1015.38 1015.02 1014.72 1014.47 1014.39 1014.22 1014.00 1013.80 1013.72 1013.65 1013.62 1013.42 1013.35 1013.12 1012.76 1012.63 1012.47 1012.39 1012.42 1012.46 1012.28 1011.57 1010.98 1010.84 1011.09 1011.10 1011.09 1011.10 1011.06 1010.90 1010.56 1010.53
1017.18 1016.81 1016.36 1015.92 1015.55 1015.18 1014.76 1014.35 1014.03 1013.81 1013.64 1013.45 1013.29 1013.13 1013.02 1013.05 1012.98 1012.83 1012.77 1012.65 1012.34 1012.02 1011.83 1011.76 1011.75 1011.70 1011.59 1011.19 1010.77 1010.23 1010.16 1010.23 1010.27 1010.10 1009.98 1009.88 1009.77 1009.79
1016.63 1016.18 1015.71 1015.23 1014.77 1014.36 1013.93 1013.51 1013.20 1012.98 1012.80 1012.63 1012.46 1012.32 1012.19 1012.19 1012.27 1012.21 1012.08 1011.77 1011.53 1011.40 1011.20 1011.06 1010.92 1010.92 1010.89 1010.71 1010.07 1009.41 1009.31 1009.38 1009.33 1009.26 1009.21 1009.13 1009.07 1009.08
1016.12 1015.58 1014.98 1014.47 1013.96 1013.49 1013.02 1012.63 1012.26 1012.01 1011.84 1011.74 1011.67 1011.61 1011.51 1011.59 1011.57 1011.46 1011.28 1011.10 1010.91 1010.72 1010.49 1010.34 1010.27 1010.22 1010.12 1009.82 1009.15 1008.66 1008.30 1008.16 1007.99 1007.97 1008.19 1008.31 1008.05 1007.86
1015.46 1014.88 1014.22 1013.62 1013.01 1012.44 1011.96 1011.54 1011.23 1011.00 1010.88 1010.85 1010.79 1010.74 1010.75 1010.84 1010.84 1010.73 1010.58 1010.39 1010.27 1010.09 1009.89 1009.63 1009.47 1009.31 1009.01 1008.82 1008.35 1007.84 1007.42 1007.20 1007.06 1006.94 1006.83 1006.97 1007.27 1007.32
Wind_Speed
4 3 2 1 1 1 2 3 4 3 4 4 3 4 5 4 7 5 6 11 16 15 15 14 14 15 17 18 18 17 17 17 17 18 20 18 14 14
3 3 1 0 1 2 2 2 3 4 4 4 4 4 5 5 8 7 7 14 15 17 18 17 18 17 19 20 20 19 19 20 18 18 19 17 16 16
2 1 1 2 2 2 1 1 3 4 4 3 4 4 3 6 6 5 7 6 6 18 20 19 19 20 21 22 22 21 19 18 16 19 17 20 18 17
3 4 5 2 3 3 2 4 3 4 4 9 4 4 6 6 6 6 6 5 5 13 17 19 21 21 20 19 18 17 19 21 18 17 16 19 19 19
5 5 5 4 3 3 3 4 4 5 4 4 4 3 4 3 3 4 5 5 6 16 20 20 21 22 22 20 20 20 18 17 18 19 18 18 19 20
6 6 6 6 6 6 6 6 6 5 4 4 4 4 4 4 4 4 6 3 6 5 10 12 14 15 18 19 18 18 17 15 13 16 17 17 19 20
6 6 6 8 12 11 7 5 6 5 4 4 6 7 7 6 6 4 5 8 7 4 5 4 4 4 5 12 15 18 17 15 15 17 16 14 15 18
6 6 6 9 10 12 16 21 19 10 8 8 7 6 8 8 8 7 7 8 8 3 3 4 3 4 5 4 13 15 15 15 15 16 17 15 16 20
4 4 5 5 10 6 14 18 18 21 19 10 8 8 8 8 6 8 7 8 10 8 5 9 3 7 4 6 15 16 15 15 15 15 15 14 15 17
6 6 6 7 7 8 8 9 10 9 9 7 9 11 10 11 10 10 10 9 8 7 7 7 5 9 4 5 15 16 15 16 16 17 17 16 16 17
6 6 6 7 13 19 12 11 11 11 14 20 20 20 21 21 14 5 6 5 6 4 4 6 7 7 5 5 4 13 16 16 16 16 18 19 17 16
6 7 14 12 20 20 12 9 10 8 6 8 7 8 10 8 13 6 3 5 5 7 6 5 8 4 3 2 2 3 3 9 11 13 16 18 17 5
6 4 5 18 19 21 21 11 10 10 12 8 8 4 4 6 6 4 4 4 6 8 4 5 2 2 4 4 2 3 3 4 3 6 13 16 15 12
7 5 7 19 21 22 16 16 19 17 2 3 4 5 6 5 5 4 5 5 5 7 5 6 3 5 4 3 4 2 2 4 4 4 4 9 15 17
6 12 22 21 21 9 15 18 17 3 4 4 5 6 4 5 4 3 5 6 6 6 6 6 7 6 5 5 3 3 7 4 4 4 3 4 4 4
14 11 14 17 12 13 10 7 4 5 6 6 6 4 4 3 3 3 3 4 3 6 6 9 9 9 7 7 6 8 7 5 1 2 4 3 3 4
14 6 2 4 6 5 4 5 5 7 6 5 6 5 4 4 5 3 4 5 6 5 4 4 5 6 7 8 8 8 7 7 7 5 5 7 4 4
7 5 6 5 6 6 6 7 7 9 6 6 6 6 5 4 5 5 4 6 6 6 5 4 4 4 5 8 15 9 8 8 7 7 7 7 7 4
3 5 5 6 8 8 8 7 7 6 7 7 7 6 5 4 7 7 5 6 6 6 6 5 5 6 7 10 7 13 9 8 7 8 8 8 9 5
5 6 7 7 8 8 8 8 7 7 6 7 7 6 5 5 6 6 6 7 7 6 6 5 6 6 8 9 7 6 10 8 7 8 8 7 7 10
7 8 8 8 8 8 8 8 8 8 7 7 7 5 7 4 5 5 6 12 11 6 6 6 6 13 7 7 7 9 8 18 17 10 8 7 8 7
8 8 9 9 9 9 9 8 8 8 8 7 6 6 5 5 6 7 6 6 6 6 7 6 6 6 7 9 11 13 10 9 13 24 24 17 6 7
9 9 9 9 9 9 9 9 9 8 7 7 6 6 5 6 6 6 6 6 6 7 7 7 6 6 8 9 12 10 14 12 7 7 10 22 25 27
Wind_Direction
111 118 123 136 140 173 178 169 167 253 260 260 246 257 262 273 270 267 266 273 286 294 285 285 293 296 293 282 279 280 284 287 289 288 287 287 310 298
106 111 111 161 205 193 206 202 189 194 253 207 246 255 277 282 273 272 264 278 284 289 282 278 277 281 285 280 278 279 284 282 277 277 277 281 285 283
122 131 226 196 259 283 237 215 211 181 236 276 238 260 268 265 276 278 269 262 269 277 276 273 276 281 276 272 265 270 272 279 276 274 268 269 273 274
201 193 233 209 222 227 230 252 231 229 209 273 243 253 237 247 242 268 276 271 255 270 275 276 279 276 276 271 270 272 271 269 269 276 284 278 265 271
222 216 232 203 252 254 255 262 250 261 231 222 261 247 261 262 275 255 260 260 259 274 279 280 280 276 268 266 271 272 269 271 269 265 269 276 274 271
234 216 223 215 222 242 248 250 254 247 245 231 240 244 240 274 243 269 280 242 270 257 264 274 272 272 275 268 265 266 264 264 266 270 261 263 258 261
247 242 240 238 238 254 278 258 244 244 245 245 264 273 268 262 255 262 260 290 279 233 254 251 254 261 271 278 274 268 271 266 266 264 264 259 258 261
248 253 240 265 275 278 283 287 287 273 266 263 260 253 270 265 259 249 252 281 287 245 221 267 208 243 243 237 259 262 259 261 265 263 256 257 264 258
252 261 273 253 279 264 282 287 289 286 281 270 253 252 273 269 253 249 244 245 263 270 252 278 208 258 238 256 268 263 259 263 269 265 260 260 264 264
254 251 251 270 261 270 255 259 256 254 257 262 265 266 251 248 226 237 242 250 259 254 249 268 265 262 249 229 263 266 266 271 273 264 265 265 260 262
267 256 260 264 280 289 277 268 271 267 264 278 279 274 276 275 284 235 233 260 274 248 195 248 262 260 251 255 228 256 264 267 271 270 267 263 261 256
265 257 275 279 287 292 291 283 280 276 269 268 267 278 284 279 276 277 268 261 261 268 223 246 260 231 271 228 239 241 267 276 274 274 272 266 260 248
283 263 254 279 287 289 287 277 279 268 255 270 263 233 255 256 259 250 236 225 258 259 282 292 308 253 235 273 252 233 219 266 262 275 276 268 263 250
290 268 270 281 284 287 303 318 311 305 355 280 266 257 255 259 261 262 259 248 237 240 252 262 294 258 243 234 253 267 270 260 235 257 248 266 265 251
291 283 298 304 307 324 300 295 304 326 281 259 255 251 239 252 258 265 267 258 253 252 252 224 236 240 236 253 247 252 277 257 232 224 252 251 245 225
292 285 283 285 300 301 304 298 278 272 265 260 254 248 256 263 251 230 248 261 247 259 229 230 234 230 238 235 246 258 242 251 276 262 256 252 251 224
300 302 306 293 278 272 271 272 272 275 270 274 270 258 248 250 257 241 243 252 246 248 245 243 245 242 241 243 252 247 252 258 254 257 249 261 245 227
318 312 298 280 271 280 276 289 285 281 279 267 267 257 251 249 260 260 244 253 252 245 241 238 239 255 263 255 240 249 246 248 252 248 239 245 249 229
303 295 286 289 292 289 267 261 270 273 276 268 267 260 248 240 273 272 253 257 240 238 237 229 232 234 253 261 261 228 240 238 240 242 241 232 245 227
284 275 275 274 273 276 278 265 264 264 263 260 262 260 238 242 252 250 259 254 251 251 243 236 236 235 243 261 268 262 239 249 245 251 241 234 222 231
287 282 278 276 274 267 268 265 256 257 252 250 253 248 249 220 256 261 250 260 253 243 249 249 241 245 249 253 251 261 249 237 240 240 244 242 226 213
292 288 286 282 277 273 271 268 263 259 253 246 250 252 233 241 241 254 243 246 250 253 258 259 254 247 242 248 262 273 273 262 236 234 237 236 229 203
291 287 285 280 276 272 267 260 256 255 247 245 244 246 228 237 243 248 252 245 247 252 255 260 256 246 249 251 256 264 269 269 251 231 237 230 230 252